Weather History for Telfer, WE

Change the Weather History Date:

Wednesday, February 6, 2013

  Actual Average Record
Temperature  
Mean Temperature 95 °F -  
Max Temperature 110 °F - - ()
Min Temperature 80 °F - - ()
Cooling Degree Days 30    
Growing Degree Days 45 (Base 50)    
Moisture  
Dew Point 54 °F    
Average Humidity 26    
Maximum Humidity 74    
Minimum Humidity 5    
Precipitation  
Precipitation 0.00 in - - ()
Sea Level Pressure  
Sea Level Pressure 29.77 in    
Wind  
Wind Speed 5 mph ()    
Max Wind Speed 14 mph    
Max Gust Speed -    
T = Trace of Precipitation, MM = Missing Value Source: Averaged Metar Reports

Daily Weather History Graph

Daily Weather History Graph

Search for Another Location

Airport:

Trip Planner

Search our weather history database for the weather conditions in past years. The results will help you decide how hot, cold, wet, or windy it might be!

Date:

Astronomy

Feb. 06, 2013 Rise Set
Actual Time 5:35 AM WST 6:34 PM WST
Civil Twilight 5:12 AM WST 6:57 PM WST
Nautical Twilight 4:44 AM WST 7:25 PM WST
Astronomical Twilight 4:16 AM WST 7:53 PM WST
Moon 1:10 AM WST (2/6) 2:50 PM WST (2/6)
Length of Visible Light 13h 45m
Length of Day
12h 58m
Waning Crescent, 22% of the Moon is Illuminated
Feb 6
Waning Crescent
Feb 10
New
Feb 18
First Quarter
Feb 26
Full
Mar 5
Last Quarter

Hourly Weather History & Observations

Time (WST) Temp. Heat Index Dew Point Humidity Pressure Visibility Wind Dir Wind Speed Gust Speed Precip Events Conditions
12:00 AM 91 °F - 48 °F 14% 29.77 in - SSE 6.9 mph - -  
12:00 AM 91.4 °F - 48.2 °F 23% 29.83 in - SSE 6.9 mph - N/A   Unknown
1:00 AM 86.0 °F - 50.0 °F 29% 29.80 in - SSE 4.6 mph - N/A   Unknown
2:00 AM 86 °F - 49 °F 18% 29.74 in - North 3.5 mph - -  
2:00 AM 86.0 °F - 50.0 °F 29% 29.80 in - North 3.5 mph - N/A   Unknown
3:00 AM 86 °F - 51 °F 20% 29.74 in - Calm Calm - -  
3:00 AM 86.0 °F - 50.0 °F 29% 29.80 in - Calm Calm - N/A   Unknown
4:00 AM 84.2 °F - 51.8 °F 33% 29.80 in - NNW 4.6 mph - N/A   Unknown
5:00 AM 82 °F - 64 °F 46% 29.75 in - NW 6.9 mph - -  
5:00 AM 82.4 °F 83.9 °F 64.4 °F 54% 29.80 in - NW 6.9 mph - N/A   Unknown
6:00 AM 81 °F - 71 °F 65% 29.76 in - WNW 5.8 mph - -  
6:00 AM 80.6 °F 84.6 °F 71.6 °F 74% 29.83 in - WNW 5.8 mph - N/A   Unknown
7:00 AM 84.2 °F 90.9 °F 73.4 °F 70% 29.86 in - NW 5.8 mph - N/A   Unknown
8:00 AM 87 °F - 74 °F 58% 29.82 in - West 5.8 mph - -  
8:00 AM 87.8 °F 97.6 °F 75.2 °F 66% 29.89 in - West 5.8 mph - N/A   Unknown
9:00 AM 92 °F - 71 °F 40% 29.81 in - WNW 6.9 mph - -  
9:00 AM 93.2 °F 98.8 °F 69.8 °F 46% 29.86 in - WNW 6.9 mph - N/A   Unknown
10:00 AM 98.6 °F 105.5 °F 69.8 °F 39% 29.86 in - NW 6.9 mph - N/A   Unknown
11:00 AM 104 °F - 59 °F 14% 29.78 in - NE 4.6 mph - -  
11:00 AM 104.0 °F 104.6 °F 59.0 °F 23% 29.83 in - NE 4.6 mph - N/A   Unknown
12:00 PM 107 °F - 49 °F 8% 29.75 in - NNW 6.9 mph - -  
12:00 PM 107.6 °F - 50.0 °F 15% 29.80 in - NNW 6.9 mph - N/A   Unknown
1:00 PM 105.8 °F - 48.2 °F 14% 29.77 in - North 8.1 mph - N/A   Unknown
2:00 PM 108 °F - 43 °F 5% 29.69 in - ENE 12.7 mph - -  
3:00 PM 109 °F - 43 °F 5% 29.67 in - ENE 10.4 mph - -  
3:00 PM 109.4 °F - 42.8 °F 11% 29.71 in - ENE 10.4 mph - N/A   Unknown
4:00 PM 107.6 °F - 42.8 °F 11% 29.71 in - East 11.5 mph - N/A   Unknown
5:00 PM 107 °F - 42 °F 5% 29.65 in - SSE 3.5 mph - -  
5:00 PM 107.6 °F - 41.0 °F 10% 29.71 in - SSE 3.5 mph - N/A   Unknown
6:00 PM 104 °F - 42 °F 6% 29.66 in - South 4.6 mph - -  
6:00 PM 104.0 °F - 41.0 °F 12% 29.71 in - South 4.6 mph - N/A   Unknown
7:00 PM 102.2 °F - 41.0 °F 12% 29.74 in - NE 4.6 mph - N/A   Unknown
8:00 PM 100 °F - 42 °F 7% 29.70 in - Calm Calm - -  
8:00 PM 100.4 °F - 42.8 °F 14% 29.74 in - Calm Calm - N/A   Unknown
9:00 PM 97 °F - 48 °F 11% 29.71 in - NNW 8.1 mph - -  
9:00 PM 96.8 °F - 48.2 °F 19% 29.77 in - NNW 8.1 mph - N/A   Unknown
10:00 PM 95.0 °F 93.7 °F 57.2 °F 28% 29.77 in - NW 13.8 mph - N/A   Unknown
11:00 PM 90 °F - 54 °F 19% 29.71 in - NNW 10.4 mph - -  
11:00 PM 89.6 °F 87.3 °F 53.6 °F 29% 29.77 in - NNW 10.4 mph - N/A   Unknown